This is the latest recevied weather packets stored in our database for station/object N9CQS-13. If no packets are shown the sender has not sent any weather packets the latest 10 day(s).
| Time | Temp. | Humidity | Pressure | Rain* | Wind** | Luminosity | Snow |
|---|---|---|---|---|---|---|---|
| 1777172492 | 12.22° C | 73% | 1015.3 hPa | 0 mm | - | - | - |
| 1777171892 | 12.78° C | 71% | 1015.1 hPa | 0 mm | - | - | - |
| 1777171292 | 13.33° C | 71% | 1015 hPa | 0 mm | - | - | - |
| 1777170692 | 13.33° C | 70% | 1014.9 hPa | 0 mm | - | - | - |
| 1777170092 | 13.89° C | 68% | 1014.6 hPa | 0 mm | - | - | - |
| 1777169492 | 14.44° C | 66% | 1014.4 hPa | 0 mm | - | - | - |
| 1777168892 | 15° C | 65% | 1014.3 hPa | 0 mm | - | - | - |
| 1777168292 | 15.56° C | 63% | 1014.1 hPa | 0 mm | - | - | - |
| 1777167692 | 16.11° C | 61% | 1013.7 hPa | 0 mm | - | - | - |
| 1777167092 | 16.11° C | 61% | 1013.4 hPa | 0 mm | - | - | - |
| 1777166492 | 16.67° C | 60% | 1013.2 hPa | 0 mm | - | - | - |
| 1777165892 | 17.22° C | 58% | 1013.2 hPa | 0 mm | - | - | - |
| 1777165292 | 17.78° C | 57% | 1013.1 hPa | 0 mm | - | - | - |
| 1777164692 | 18.33° C | 55% | 1012.8 hPa | 0 mm | - | - | - |
| 1777164092 | 18.89° C | 54% | 1012.6 hPa | 0 mm | - | - | - |
| 1777163492 | 19.44° C | 52% | 1012.5 hPa | 0 mm | - | - | - |
| 1777162892 | 19.44° C | 50% | 1012.4 hPa | 0 mm | - | - | - |
| 1777162292 | 20° C | 51% | 1012.3 hPa | 0 mm | - | - | - |
| 1777161692 | 20.56° C | 50% | 1012.3 hPa | 0 mm | - | - | - |
| 1777161092 | 20.56° C | 49% | 1012.1 hPa | 0 mm | - | - | - |
| 1777160493 | 20.56° C | 50% | 1012.3 hPa | 0 mm | - | - | - |
| 1777159892 | 21.11° C | 50% | 1012.2 hPa | 0 mm | - | - | - |
| 1777159292 | 21.11° C | 49% | 1012.2 hPa | 0 mm | - | - | - |
| 1777158692 | 21.67° C | 48% | 1012.2 hPa | 0 mm | - | - | - |
| 1777158092 | 21.67° C | 49% | 1012.2 hPa | 0 mm | - | - | - |
* Rain latest hour (hover to see other rain measurements)
** Current wind speed in m/s (hover to see current wind gust speed)